Regional Weather Roundup
Issued by NWS

Home | Current Version | Previous Version | Graphics & Text | Print | Product List | Glossary On
Versions: 1 2 3 4 5 6 7 8 9 10 11 12 13 14 15 16 17 18 19 20 21 22 23 24 25 26 27 28
000
ASUS45 KTFX 231810
RWRMT
MONTANA REGIONAL WEATHER ROUNDUP
NATIONAL WEATHER SERVICE GREAT FALLS MT
1100 AM MST MON JAN 23 2017

NOTE: "FAIR" INDICATES FEW OR NO CLOUDS BELOW 12000 FEET WITH NO
SIGNIFICANT WEATHER AND/OR OBSTRUCTIONS TO VISIBILITY.

MTZ001>007-043-231900-
WEST OF THE DIVIDE

CITY           SKY/WX    TMP DP  RH WIND       PRES   REMARKS
KALISPELL      PTSUNNY   30  20  66 N7        29.72R WCI  23
MISSOULA       CLOUDY    23  22  96 SE3       29.72R
BUTTE          CLOUDY     7   4  87 CALM      29.63R
MULLAN PASS    LGT SNOW  24  21  88 CALM      29.61R FOG
ANACONDA         N/A     25  12  58 CALM      29.64F
DEER LODGE       N/A     18  12  79 CALM      29.69S
EUREKA           N/A     28  21  74 CALM      29.76S
HAMILTON         N/A     23  16  74 MISG      29.69
PLAINS           N/A     29  25  85 CALM      29.77R
RONAN            N/A     26  24  92 CALM      29.78R
$$

MTZ008-052>055-231900-
SOUTHWEST MONTANA

CITY           SKY/WX    TMP DP  RH WIND       PRES   REMARKS
BOZEMAN        CLOUDY    20  18  92 E5        29.69R FOG
DILLON         CLOUDY   N/A N/A N/A W5        29.62R
W YELLOWSTONE  CLOUDY    25  18  74 NE7       29.56F WCI  17
ENNIS          MOSUNNY   19  14  79 CALM      29.66S
TWIN BRIDGES     N/A     11   3  70 E1        29.67S
$$

MTZ009-010-012-014-046-048-049-054-231900-
EAST SLOPES AND CENTRAL MONTANA

CITY           SKY/WX    TMP DP  RH WIND       PRES   REMARKS
CUT BANK       CLOUDY    17  16  95 N10       29.77R WCI   5
GREAT FALLS    FLURRIES  21  19  92 N8        29.77R WCI  11
MALMSTROM AFB  FLURRIES  21  21  98 N8        29.78R WCI  12
HELENA         CLOUDY    25  17  72 NW5       29.74R
BOWMANS CRNR   FLURRIES  18  17  96 N9        29.72R WCI   7
CHOTEAU          N/A     19  19 100 N7        29.79R WCI  10
CONRAD           N/A     20  19  96 CALM      29.82R
POWER          FLURRIES  18  17  95 N10       29.76R WCI   7
RAYNESFORD     LGT SNOW  22  22  96 NW6       29.74R WCI  15
ULM            FLURRIES  22  21  97 MISG      29.77R
$$

MTZ011-013-016-021-045-047-050-051-231900-
NORTH CENTRAL MONTANA

CITY           SKY/WX    TMP DP  RH WIND       PRES   REMARKS
HAVRE          CLOUDY    24  20  84 N6        29.80S WCI  17
LEWISTOWN      FLURRIES  22  20  92 W9        29.71S WCI  12
CHINOOK          N/A     25  21  86 N3        29.81S
DENTON         FLURRIES  22  22  97 N8        29.71R WCI  13
FORT BENTON      N/A     25  21  86 N5        29.82R
GEYSER         FLURRIES  23  22  96 W3        29.72R
GRASS RANGE    FLURRIES  24  24  99 W14       29.68R WCI  12
JUDITH GAP     PTSUNNY   22  20  93 N23       29.66S WCI   6
ROY            FLURRIES  24  24  98 MISG      29.71S
STANFORD       PTSUNNY   22  22  98 NW14      29.70R WCI  10
WINIFRED       PTSUNNY   24  23  99 W10       29.73R WCI  13
$$

MTZ017>020-022>027-061-062-231900-
NORTHEAST MONTANA

CITY           SKY/WX    TMP DP  RH WIND       PRES   REMARKS
GLASGOW        SNOW      27  24  89 NE7       29.76S VSB 1/2 WCI  19
JORDAN           N/A     25  22  88 NE5       29.74S
SIDNEY         CLOUDY    26  22  84 NE8       29.78F WCI  18
WOLF POINT     CLOUDY    28  24  85 NE9       29.79S WCI  19
PLENTYWOOD       N/A     19  18  93 NW13      29.78S WCI   7
POPLAR           N/A     25  21  86 NE7       29.79F WCI  17
SCOBEY           N/A     21  13  71 W7        29.77S WCI  12
$$

MTZ028>42-056>058-231900-
SOUTHCENTRAL AND SOUTHEAST MONTANA

CITY           SKY/WX    TMP DP  RH WIND       PRES   REMARKS
BAKER          FOG       19  17  92 SE12      29.72F VSB 1   WCI   7
BILLINGS       CLOUDY    20  18  92 S3        29.71R FOG
LIVINGSTON     SUNNY     25  18  74 NW9       29.65S WCI  15
MILES CITY     CLOUDY    22  18  85 E7        29.72F FOG     WCI  13
BIG TIMBER     SUNNY     27  19  74 N3        29.69R
EKALAKA          N/A     22  15  74 CALM      29.67R
FORSYTH          N/A     21  21 100 CALM      29.74R VSB 0
HARLOWTON        N/A     26  21  80 N8        29.66F WCI  18
LAUREL           N/A     19  13  77 MISG      29.72R
$$

REGIONAL REPORTS...DAKOTAS

CITY           SKY/WX    TMP DP  RH WIND       PRES   REMARKS
WILLISTON      CLOUDY    24  20  84 N9        29.79F WCI  14
MINOT          CLOUDY    26  20  77 W18       29.76F WCI  13
DICKINSON      CLOUDY    23  20  88 S6        29.73R WCI  16
BEACH          FOG       21  21 100 S6        29.77S VSB 1/2 WCI  14
CROSBY         CLOUDY    19  18  93 NW12      29.80F WCI   7
TIOGA          PTSUNNY   21  21 100 NW20      29.77F WCI   6
WATFORD CITY   CLOUDY    25  23  93 N6        29.78S WCI  18
BISMARCK       CLOUDY    30  22  72 SE3       29.80S
GRAND FORKS    CLOUDY    32  24  72 W17       29.79F WCI  21
FARGO          CLOUDY    35  29  78 W8        29.81F WCI  29
BUFFALO SD       N/A     24  19  81 NE3       29.64R
RAPID CITY     CLOUDY    25  22  88 CALM      29.65R
$$

REGIONAL REPORTS...WYOMING/IDAHO/WASHINGTON

CITY           SKY/WX    TMP DP  RH WIND       PRES   REMARKS
GILLETTE       SUNNY     36  23  59 NW8       29.59S WCI  30
SHERIDAN       CLOUDY    27  19  72 W13       29.65R WCI  16
BUFFALO WY     SUNNY     30  17  58 NW12      29.61R WCI  20
CODY           CLOUDY    21  14  74 N6        29.63R WCI  13
YELLOWSTONE LA   N/A     14   9  80 CALM      29.54F
IDAHO FALLS    LGT SNOW  30  28  92 E6        29.51F FOG     WCI  24
SALMON         CLOUDY   N/A N/A N/A CALM      29.67F VSB 1/4
BOISE          SNOW      29  27  92 NW9       29.64R VSB 1/2 WCI  20
SPOKANE        FOG       31  29  92 NE9       29.73R VSB 1/2 WCI  23
$$

REGIONAL REPORTS...ALBERTA

CITY           SKY/WX    TMP DP  RH WIND       PRES   REMARKS
EDMONTON       CLOUDY    14   7  73 NE2       29.89R FOG
CALGARY        CLOUDY    21  19  93 VRB2      29.77S FOG
LETHBRIDGE     CLOUDY    21  19  93 W3        29.82  FOG
MEDICINE HAT   CLOUDY    21  19  93 W8        29.85R FOG     WCI  12
WATERTON GATE    N/A     21  18  86 CALM        N/A
CARDSTON         N/A     23  19  86 CALM        N/A
MILK RIVER       N/A     19  19 100 N5          N/A
$$

REGIONAL REPORTS...SASKATCHEWAN

CITY           SKY/WX    TMP DP  RH WIND       PRES   REMARKS
SWIFT CURRENT  CLOUDY    14  14 100 NW15G21   29.75S WCI  -1
REGINA         FLURRIES  19  14  79 NW14      29.77S WCI   6
SASKATOON      LGT SNOW  14   9  79 N10       29.84S DRFTSNOWWCI   1
VAL MARIE        N/A     19  18  93 N10         N/A  WCI   8
ROCKGLEN         N/A     18  16  93 NW8         N/A  WCI   7
ASSINIBOIA       N/A     14  12  92 N1          N/A
$$




USA.gov is the U.S. government's official web portal to all federal, state and local government web resources and services.